Location: ???????
(55.4362°N, 38.1183°E)
Time: 09:35:32
(UTC+00:00)

Oscar 11 - Pass Details

Date: 06 December 2021
Orbit: 611 x 625 km, 97.6° (Epoch: 28 January)

Event Time Altitude Azimuth Distance (km) Brightness Sun altitude
Rises 03:49:37 0° 11° (N) 2,924 10.4 -14.1°
Reaches altitude 10° 03:51:53 10° 5° (N) 2,011 9.5 -13.8°
Maximum altitude 03:56:02 44° 294° (WNW) 874 7.4 -13.3°
Drops below altitude 10° 04:00:08 10° 222° (SW) 1,989 9.5 -12.7°
Sets 04:02:23 0° 216° (SW) 2,889 10.3 -12.5°
